Regional Weather Roundup
Issued by NWS

Home | Current Version | Previous Version | Graphics & Text | Print | Product List | Glossary On
Versions: 1 2 3 4 5 6 7 8 9 10 11 12 13 14 15 16 17 18 19 20 21 22 23 24 25 26 27 28 29 30 31 32 33 34 35 36 37 38 39 40 41 42 43 44 45 46 47 48 49 50
149
ASUS43 KMKX 231611
RWRWI

WISCONSIN REGIONAL WEATHER ROUNDUP
NATIONAL WEATHER SERVICE MILWAUKEE/SULLIVAN WI
1100 AM CDT SUN APR 23 2017

NOTE: "FAIR" INDICATES FEW OR NO CLOUDS BELOW 12,000 FEET WITH NO
SIGNIFICANT WEATHER AND/OR OBSTRUCTIONS TO VISIBILITY.

WIZ001-002-006>008-014>016-023>028-231700-
NORTHWEST WISCONSIN

CITY           SKY/WX    TMP DP  RH WIND       PRES   REMARKS
SUPERIOR ARPT  FLURRIES  34  33  94 NE10      30.21F WCI  26
ASHLAND        FLURRIES  36  33  89 NE15      30.21S WCI  27
HAYWARD        CLOUDY    40  32  73 NE12      30.16S WCI  33
SIREN          CLOUDY    42  34  75 E8        30.15S
CUMBERLAND     CLOUDY    43  36  75 NE13      30.13S
RICE LAKE      SUNNY     46  38  72 N15       30.13F
CHETEK         SUNNY     50  39  66 NE8       30.11S
LADYSMITH      CLOUDY    43  38  82 N12       30.15R
EAU CLAIRE     SUNNY     55  40  56 NE7       30.09S
MENOMONIE      SUNNY     55  40  56 CALM      30.10F
NEW RICHMOND   SUNNY     55  39  56 NE8       30.10F
OSCEOLA        PTSUNNY   51  41  68 N8        30.13S
$$

WIZ003>005-009-010-017-018-231700-
NORTH CENTRAL WISCONSIN

CITY           SKY/WX    TMP DP  RH WIND       PRES   REMARKS
MANITOWISH WTR CLOUDY    34  34 100 NE8       30.15R WCI  27
ARBOR VITAE    CLOUDY    38  35  89 E7        30.14R WCI  32
WOODRUFF       CLOUDY    38  35  89 E7        30.14R WCI  32
RHINELANDER    CLOUDY    43  35  73 E9        30.13F
EAGLE RIVER    CLOUDY    35  31  85 E10       30.14S WCI  27
LAND O LAKES   CLOUDY    34  32  92 E6        30.17R WCI  29
PHILLIPS       CLOUDY    42  36  79 NE9       30.13S
TOMAHAWK       CLOUDY    42  37  80 E5        30.13S
MEDFORD        SUNNY     53  41  62 E6        30.09S
MERRILL        MOSUNNY   52  40  64 NE9G16    30.10F
$$

WIZ029-030-035-036-043>047-231700-
CENTRAL WISCONSIN

CITY           SKY/WX    TMP DP  RH WIND       PRES   REMARKS
WAUSAU         SUNNY     57  39  51 VRB6      30.08S
MOSINEE        MOSUNNY   57  39  51 N8        30.10R
MARSHFIELD     SUNNY     59  39  47 VRB3      30.08R
STEVENS POINT  SUNNY     60  37  42 N7        30.09R
WAUPACA        SUNNY     67  35  30 W7        30.08S
WAUTOMA        SUNNY     66  37  34 W10G17    30.08F
WISC RAPIDS    SUNNY     66  38  35 NW10      30.08F
CAMP DOUGLAS   MOSUNNY   66  37  34 W12       30.08F
$$

WIZ011>013-019>022-031-037>040-048>050-231700-
NORTHEAST WISCONSIN

CITY           SKY/WX    TMP DP  RH WIND       PRES   REMARKS
ANTIGO         MOSUNNY   48  40  71 NE16      30.12R
SHAWANO        MOSUNNY   53  42  66 NE12      30.14R
OCONTO         SUNNY     44  35  71 E12       30.16R
STURGEON BAY   CLOUDY    42  35  76 N18       30.16R
GREEN BAY      SUNNY     48  41  76 NE24      30.14R
MANITOWOC      SUNNY     46  38  73 NE14      30.14R
APPLETON       MOSUNNY   61  34  36 NE7       30.07F
CLINTONVILLE   SUNNY     59  34  38 NE13      30.10R
OSHKOSH        SUNNY     64  39  39 NW6       30.08F
$$

WIZ032>034-041-042-053>061-231700-
SOUTHWEST WISCONSIN

CITY           SKY/WX    TMP DP  RH WIND       PRES   REMARKS
LA CROSSE      SUNNY     67  38  34 CALM      30.08F
SPARTA         SUNNY     65  37  35 W9        30.09F
VIROQUA        SUNNY     63  35  34 NW6       30.10F
BOSCOBEL       SUNNY     66  36  32 VRB3      30.11F
PRAIRIE DU CHI SUNNY     65  35  32 W3        30.11F
PLATTEVILLE    SUNNY     64  35  34 W10       30.13F
$$

WIZ056-057-062-063-064-067-068-231700-
SOUTH CENTRAL WISCONSIN

CITY           SKY/WX    TMP DP  RH WIND       PRES   REMARKS
REEDSBURG      SUNNY     65  39  38 NW6       30.09F
BARABOO/DELLS  SUNNY     65  35  32 W6        30.09F
LONE ROCK      SUNNY     64  37  36 W5        30.11F
MINERAL POINT  SUNNY     64  34  32 SW8       30.12S
MADISON        SUNNY     65  34  31 VRB6      30.10F
MIDDLETON      SUNNY     67  34  29 W8        30.11F
WATERTOWN      SUNNY     65  38  37 SW8       30.10F
MONROE         SUNNY     61  32  33 W9G16     30.13S
JANESVILLE     SUNNY     64  30  27 W13       30.12F
$$

WIZ051-052-058>065-066-070>072-231700-
SOUTHEAST WISCONSIN

CITY           SKY/WX    TMP DP  RH WIND       PRES   REMARKS
MILWAUKEE      SUNNY     66  31  27 W7        30.11F
WAUKESHA       SUNNY     63  34  34 W12       30.13S
MILWAUKEE/TIMM SUNNY     64  28  25 SW8       30.11F
RACINE         SUNNY     65  32  29 W9        30.13F
KENOSHA        SUNNY     64  33  31 W7        30.12F
FOND DU LAC    SUNNY     66  36  32 W12G17    30.08F
SHEBOYGAN      SUNNY     50  41  71 NE21      30.11R
WEST BEND      SUNNY     64  34  32 W12       30.09F
JUNEAU         SUNNY     63  40  42 SW8       30.11F
$$

LSZ147-162-231700-
LAKE SUPERIOR

STATION/POSITION TIME  TEMP    WIND        PRES    WAVE
                       AIR SEA DIR/SP/G            HT/PER
                 (UTC) (F)     (DEG/KT/KT) (MB)    (FT/S)
DEVILS ISLAND    1600   34      60/ 15/ 16 1024.7R
PORT WING        1440   34      40/ 15/ 22 1023.4F
SAXON HARBOR     1530   35      40/ 16/ 19 1022.7S
$$

LMZ867-665-643>646-231700-
LAKE MICHIGAN

STATION/POSITION TIME  TEMP    WIND        PRES    WAVE
                       AIR SEA DIR/SP/G            HT/PER
                 (UTC) (F)     (DEG/KT/KT) (MB)    (FT/S)
CHAMBERS ISLAND  1540   38      10/ 13/ 16 1021.7R
N MID LAKE BUOY  1550   37 37   30/ 14/ 17 1022.9R   2/ 4
NORTHPORT PIER   1540   39     360/ 12/ 16 1021.7S
SISTER BAY       1521   42      10/ 16/ 20   N/A
KEWAUNEE LAKESHO 1548   41      40/ 17/ 24 1020.4R
SHEBOYGAN LAKESH 1600           20/ 15/ 16 1020.2R
PORT WASHINGTON  1530   66     280/  6/ 15 1020.0S
MILWAUKEE LAKESH 1550   63     240/  7/  9   N/A
KENOSHA   LAKESH 1600   63     230/  4/  9 1019.6
$$

TC  - TEMPERATURE IN CELSIUS
VSB - VISIBILITY IN STATUTE MILES
WCI - WIND CHILL INDEX
HX  - HEAT INDEX





USA.gov is the U.S. government's official web portal to all federal, state and local government web resources and services.